This demonstration page uses our WeatherBlox Daily Observations layout. Learn more.

38.89511, -77.03637

Hourly Observations for October 28, 2015

Temp ( °F °C ) Dew Point ( °F °C ) Humidity (%) Winds ( mph kmh ) Pressure ( in mb ) Visibility ( mi km ) Precip ( " mm )
12:52 am 00:52 Cloudy with Light Rain 56 13.3 51 10.6 84 84 NE 12 19 30.3 1026 10 16.0934 0 0.0254
1:52 am 01:52 Cloudy with Light Rain 55 12.8 52 11.1 90 90 ENE 9 15 30.26 1025 10 16.0934 0 0.0254
2:52 am 02:52 Cloudy with Light Drizzle 56 13.3 53 11.7 90 90 ENE 9 15 30.23 1024 10 16.0934 0.01 0.254
3:50 am 03:50 Cloudy with Light Drizzle 57 14 55 13 94 94 E 10 17 30.21 1023 10 16.0934 0 0
3:52 am 03:52 Cloudy with Light Drizzle 58 14.4 55 12.8 90 90 E 12 19 30.19 1023 7 11.26538 0 0.0254
4:40 am 04:40 Cloudy with Light Rain 59 15 55 13 88 88 E 15 24 30.15 1021 7 11.26538 0 0
4:52 am 04:52 Cloudy with Light Rain 59 15 56 13.3 90 90 E 17 28 30.15 1021 7 11.26538 0 0.0254
5:52 am 05:52 Cloudy with Light Rain 60 15.6 57 13.9 90 90 E 12 19 30.13 1020 9 14.48406 0 0.0254
6:52 am 06:52 Cloudy 61 16.1 58 14.4 90 90 E 13 20 30.1 1019 10 16.0934 0 0.0254
7:52 am 07:52 Cloudy with Light Rain 62 16.7 59 15 90 90 E 13 20 30.08 1019 10 16.0934 0 0.0254
8:08 am 08:08 Cloudy 63 17 59 15 88 88 ESE 10 17 30.09 1019 10 16.0934 0 0
8:36 am 08:36 Cloudy with Rain 63 17 61 16 94 94 SE 9 15 30.06 1018 6 9.65604 0 0
8:52 am 08:52 Cloudy with Light Rain 63 17.2 60 15.6 90 90 ESE 9 15 30.05 1018 9 14.48406 0.03 0.762
9:11 am 09:11 Cloudy 63 17 61 16 94 94 ESE 10 17 30.06 1018 10 16.0934 0 0.0254
9:52 am 09:52 Cloudy with Light Rain 64 17.8 62 16.7 93 93 ESE 10 17 30.01 1016 7 11.26538 0.01 0.254
10:29 am 10:29 Cloudy with Light Rain 64 18 63 17 94 94 ESE 17 28 30 1016 4 6.43736 0 0.0254
10:43 am 10:43 Cloudy with Light Rain 64 18 63 17 94 94 ESE 13 20 29.97 1015 8 12.87472 0 0.0254
10:52 am 10:52 Cloudy 65 18.3 63 17.2 93 93 ESE 16 26 29.97 1015 10 16.0934 0.01 0.254
10:59 am 10:59 Cloudy with Light Rain 66 19 63 17 88 88 ESE 15 24 29.97 1015 4 6.43736 0 0.0254
11:04 am 11:04 Cloudy with Light Rain 66 19 63 17 88 88 ESE 17 28 29.97 1015 2.5 4.02335 0 0
11:14 am 11:14 Cloudy with Light Rain 66 19 63 17 88 88 ESE 16 26 29.94 1014 4 6.43736 0 0
11:20 am 11:20 Cloudy with Light Rain 66 19 64 18 94 94 ESE 17 28 29.94 1014 4 6.43736 0.01 0.254
11:24 am 11:24 Cloudy with Rain 66 19 64 18 94 94 SE 15 24 29.94 1014 2.5 4.02335 0 0
11:29 am 11:29 Cloudy with Rain 66 19 64 18 94 94 SE 18 30 29.94 1014 1.75 2.816345 0.03 0.762
11:35 am 11:35 Cloudy with Rain 66 19 64 18 94 94 SE 14 22 29.94 1014 2 3.21868 0.06 1.524
11:42 am 11:42 Cloudy with Rain 66 19 64 18 94 94 SE 18 30 29.94 1014 3 4.82802 0.06 1.524
11:52 am 11:52 Cloudy with Light Rain 67 19.4 65 18.3 93 93 SE 20 31 29.93 1014 6 9.65604 0.08 2.032
12:13 pm 12:13 Cloudy with Light Rain 66 19 64 18 94 94 SSE 10 17 29.94 1014 2.5 4.02335 0 0
12:18 pm 12:18 Cloudy with Light Rain 66 19 64 18 94 94 SSE 12 19 29.94 1014 6 9.65604 0.01 0.254
12:29 pm 12:29 Cloudy 66 19 64 18 94 94 SE 15 24 29.91 1013 10 16.0934 0.01 0.254
12:32 pm 12:32 Cloudy 66 19 64 18 94 94 SSE 14 22 29.91 1013 10 16.0934 0.01 0.254
12:47 pm 12:47 Cloudy 68 20 64 18 88 88 SSE 15 24 29.91 1013 9 14.48406 0.02 0.508
12:52 pm 12:52 Cloudy with Rain 68 20 65 18.3 90 90 SSE 14 22 29.89 1012 4 6.43736 0.02 0.508
1:01 pm 13:01 Cloudy with Light Rain 68 20 66 19 94 94 SSE 14 22 29.88 1012 6 9.65604 0.02 0.508
1:52 pm 13:52 Cloudy with Light Rain 70 21.1 67 19.4 90 90 SSE 14 22 29.84 1011 9 14.48406 0.06 1.524
2:28 pm 14:28 Cloudy with Rain 70 21 66 19 88 88 SSE 14 22 29.83 1010 8 12.87472 0 0
2:35 pm 14:35 Cloudy with Light Rain 70 21 66 19 88 88 S 15 24 29.83 1010 9 14.48406 0.01 0.254
2:52 pm 14:52 Cloudy with Light Rain 69 20.6 67 19.4 93 93 S 15 24 29.8 1009 10 16.0934 0.01 0.254
3:12 pm 15:12 Cloudy 70 21 66 19 88 88 S 10 17 29.8 1009 10 16.0934 0 0
3:47 pm 15:47 Cloudy with Light Rain 70 21 66 19 88 88 S 10 17 29.77 1008 10 16.0934 0.01 0.254
3:50 pm 15:50 Cloudy with Light Rain 70 21 66 19 88 88 S 10 17 29.77 1008 10 16.0934 0 0
3:52 pm 15:52 Cloudy with Light Rain 69 20.6 67 19.4 93 93 S 10 17 29.78 1008 10 16.0934 0.01 0.254
3:54 pm 15:54 Cloudy with Light Rain 70 21 66 19 88 88 S 10 17 29.77 1008 10 16.0934 0 0
4:01 pm 16:01 Cloudy with Light Rain 70 21 66 19 88 88 S 8 13 29.77 1008 8 12.87472 0.01 0.254
4:37 pm 16:37 Mostly Cloudy 70 21 66 19 88 88 SSE 7 11 29.74 1007 10 16.0934 0.03 0.762
4:44 pm 16:44 Mostly Cloudy 70 21 68 20 94 94 SSE 8 13 29.74 1007 10 16.0934 0.03 0.762
4:52 pm 16:52 Mostly Cloudy with Light Rain 70 21.1 68 20 93 93 SSE 7 11 29.74 1007 8 12.87472 0.03 0.762
5:05 pm 17:05 Cloudy with Light Rain 70 21 66 19 88 88 SE 8 13 29.74 1007 9 14.48406 0 0.0254
5:12 pm 17:12 Cloudy with Light Rain 70 21 66 19 88 88 SE 8 13 29.71 1006 9 14.48406 0 0
5:27 pm 17:27 Cloudy with Light Rain 70 21 66 19 88 88 SSE 10 17 29.71 1006 5 8.0467 0 0
5:32 pm 17:32 Cloudy with Heavy Rain 70 21 68 20 94 94 SE 17 28 29.71 1006 3 4.82802 0 0
5:36 pm 17:36 Cloudy with Rain 70 21 68 20 94 94 SE 13 20 29.71 1006 2.5 4.02335 0.04 1.016
5:42 pm 17:42 Cloudy with Rain 70 21 68 20 94 94 SE 14 22 29.71 1006 3 4.82802 0 0
5:52 pm 17:52 Cloudy with Light Rain 70 21.1 67 19.4 90 90 SE 16 26 29.69 1005 10 16.0934 0.05 1.27
6:25 pm 18:25 Cloudy with Light Rain 70 21 66 19 88 88 SE 13 20 29.68 1005 10 16.0934 0.01 0.254
6:52 pm 18:52 Cloudy with Light Rain 70 21.1 67 19.4 90 90 SSE 13 20 29.66 1005 9 14.48406 0.01 0.254
6:57 pm 18:57 Cloudy with Light Rain 70 21 66 19 88 88 S 16 26 29.68 1005 6 9.65604 0 0.0254
7:05 pm 19:05 Cloudy with Rain 70 21 68 20 94 94 S 14 22 29.68 1005 4 6.43736 0.01 0.254
7:08 pm 19:08 Cloudy with Rain 70 21 66 19 88 88 S 15 24 29.65 1004 4 6.43736 0 0
7:11 pm 19:11 Cloudy with Light Rain 70 21 66 19 88 88 SSE 16 26 29.65 1004 4 6.43736 0.02 0.508
7:52 pm 19:52 Cloudy with Light Rain 69 20.6 67 19.4 93 93 S 20 31 29.64 1004 10 16.0934 0.03 0.762
8:06 pm 20:06 Cloudy 68 20 66 19 94 94 S 21 33 29.62 1003 10 16.0934 0 0.0254
8:08 pm 20:08 Cloudy 70 21 66 19 88 88 S 20 31 29.62 1003 10 16.0934 0 0
8:22 pm 20:22 Cloudy 70 21 66 19 88 88 S 18 30 29.65 1004 10 16.0934 0 0
8:52 pm 20:52 Cloudy 69 20.6 67 19.4 93 93 S 16 26 29.64 1004 10 16.0934 0 0.0254
9:40 pm 21:40 Cloudy 70 21 66 19 88 88 S 16 26 29.65 1004 10 16.0934 0 0
9:44 pm 21:44 Cloudy 70 21 66 19 88 88 S 16 26 29.65 1004 10 16.0934 0 0
9:47 pm 21:47 Cloudy 70 21 66 19 88 88 S 13 20 29.65 1004 10 16.0934 0 0
9:52 pm 21:52 Cloudy 70 21.1 67 19.4 90 90 S 13 20 29.65 1004 10 16.0934 0 0
10:05 pm 22:05 Cloudy 70 21 66 19 88 88 S 17 28 29.65 1004 10 16.0934 0 0
10:26 pm 22:26 Cloudy 66 19 64 18 94 94 S 14 22 29.65 1004 10 16.0934 0 0.0254
10:29 pm 22:29 Cloudy with Light Rain 66 19 64 18 94 94 S 14 22 29.65 1004 10 16.0934 0 0.0254
10:32 pm 22:32 Cloudy with Light Rain 66 19 64 18 94 94 S 12 19 29.65 1004 10 16.0934 0 0
10:52 pm 22:52 Cloudy 67 19.4 65 18.3 93 93 S 13 20 29.66 1004 10 16.0934 0 0.0254
11:22 pm 23:22 Cloudy 66 19 64 18 94 94 S 14 22 29.65 1004 10 16.0934 0 0
11:52 pm 23:52 Cloudy 67 19.4 65 18.3 93 93 S 13 20 29.64 1004 10 16.0934 0 0.0254

Powered by AerisWeather